FW5962 Weather Reports


time (UTC)temp
C
wind
direction
speed
KPH
gust
KPH
rain 1hr
cm
rain 24hr
cm
rain mn
cm
humidity
%
barometer
mb
20260505035544 17 0 0.0 0.0 0.00 0.00 0.00 72 1010.1
20260505035045 17 0 0.0 0.0 0.00 0.00 0.00 70 1009.9
20260505034552 17 0 0.0 0.0 0.00 0.00 0.00 69 1009.9
20260505034041 17 0 0.0 0.0 0.00 0.00 0.00 69 1009.9
20260505033541 17 0 0.0 0.0 0.00 0.00 0.00 69 1009.9
20260505033051 17 0 0.0 0.0 0.00 0.00 0.00 69 1009.7
20260505032540 18 0 0.0 0.0 0.00 0.00 0.00 68 1009.7
20260505032052 18 0 0.0 0.0 0.00 0.00 0.00 67 1009.7
20260505031553 18 0 0.0 0.0 0.00 0.00 0.00 66 1009.7
20260505031042 18 0 0.0 0.0 0.00 0.00 0.00 64 1009.5
20260505030544 18 0 0.0 0.0 0.00 0.00 0.00 65 1009.5
20260505030052 18 0 0.0 0.0 0.00 0.00 0.00 63 1009.5
20260505025541 19 0 0.0 0.0 0.00 0.00 0.00 61 1009.4
20260505025041 19 0 0.0 0.0 0.00 0.00 0.00 61 1009.3
20260505024600 20 0 0.0 0.0 0.00 0.00 0.00 62 1009.2
20260505024041 20 0 0.0 0.0 0.00 0.00 0.00 61 1009.2
20260505023543 20 0 0.0 0.0 0.00 0.00 0.00 61 1009.3
20260505023054 20 0 0.0 0.0 0.00 0.00 0.00 60 1009.3
20260505022541 20 0 0.0 0.0 0.00 0.00 0.00 59 1009.3
20260505022042 20 0 0.0 0.0 0.00 0.00 0.00 59 1009.3
20260505021549 21 0 0.0 0.0 0.00 0.00 0.00 59 1009.3
20260505021041 21 0 0.0 0.0 0.00 0.00 0.00 58 1009.2
20260505020541 21 0 0.0 0.0 0.00 0.00 0.00 57 1009.3
20260505020049 21 0 0.0 0.0 0.00 0.00 0.00 57 1009.2
20260505015541 21 0 0.0 0.0 0.00 0.00 0.00 56 1009.3
20260505015045 21 0 0.0 0.0 0.00 0.00 0.00 55 1009.4
20260505014551 22 0 0.0 0.0 0.00 0.00 0.00 55 1009.3
20260505014046 22 0 0.0 0.0 0.00 0.00 0.00 54 1009.4
20260505013541 22 0 0.0 0.0 0.00 0.00 0.00 56 1009.4
20260505013111 22 0 0.0 0.0 0.00 0.00 0.00 55 1009.5
20260505012549 22 0 0.0 0.0 0.00 0.00 0.00 55 1009.5
20260505012045 22 0 0.0 0.0 0.00 0.00 0.00 53 1009.4
20260505011550 22 0 0.0 0.0 0.00 0.00 0.00 54 1009.5
20260505011040 22 0 0.0 0.0 0.00 0.00 0.00 54 1009.5
20260505010541 22 0 0.0 0.0 0.00 0.00 0.00 54 1009.5
20260505010105 22 0 0.0 0.0 0.00 0.00 0.00 57 1009.5
20260505005542 22 0 0.0 0.0 0.00 0.00 0.00 55 1009.7
20260505005041 22 0 0.0 0.0 0.00 0.00 0.00 57 1009.6
20260505004552 22 0 0.0 0.0 0.00 0.00 0.00 56 1009.6
20260505004044 22 0 0.0 0.0 0.00 0.00 0.00 56 1009.5
20260505003544 22 0 0.0 0.0 0.00 0.00 0.00 56 1009.5
20260505003053 23 0 0.0 0.0 0.00 0.00 0.00 56 1009.5
20260505002541 23 0 0.0 0.0 0.00 0.00 0.00 58 1009.4
20260505002041 23 0 0.0 0.0 0.00 0.00 0.00 58 1009.5
20260505001548 23 0 0.0 4.8 0.00 0.00 0.00 57 1009.6
20260505001042 24 0 0.0 9.7 0.00 0.00 0.00 56 1009.5
20260505000541 24 0 0.0 9.7 0.00 0.00 0.00 55 1009.5
20260505000059 25 0 0.0 0.0 0.00 0.00 0.00 53 1009.5
20260504235541 25 0 0.0 0.0 0.00 0.00 0.00 54 1009.4
20260504235041 25 0 0.0 0.0 0.00 0.00 0.00 55 1009.4
20260504234549 24 0 0.0 1.6 0.00 0.00 0.00 55 1009.4
20260504234044 24 0 0.0 1.6 0.00 0.00 0.00 54 1009.4
20260504233543 24 0 0.0 0.0 0.00 0.00 0.00 55 1009.5
20260504233058 24 0 0.0 0.0 0.00 0.00 0.00 56 1009.4
20260504232541 24 0 0.0 0.0 0.00 0.00 0.00 55 1009.4
20260504232043 25 0 0.0 0.0 0.00 0.00 0.00 56 1009.4
20260504231552 25 0 0.0 0.0 0.00 0.00 0.00 55 1009.6
20260504231040 25 0 0.0 0.0 0.00 0.00 0.00 55 1009.5
20260504230641 25 0 0.0 0.0 0.00 0.00 0.00 53 1009.5
20260504230544 25 0 0.0 0.0 0.00 0.00 0.00 53 1009.5
20260504225541 25 0 0.0 0.0 0.00 0.00 0.00 53 1009.6
20260504225046 25 0 0.0 0.0 0.00 0.00 0.00 54 1009.8
20260504224549 25 0 0.0 0.0 0.00 0.00 0.00 55 1009.8
20260504224045 25 0 0.0 3.2 0.00 0.00 0.00 56 1009.8
20260504223544 25 0 0.0 3.2 0.00 0.00 0.00 55 1009.8
20260504223055 25 0 0.0 0.0 0.00 0.00 0.00 55 1009.9
20260504222541 25 0 0.0 0.0 0.00 0.00 0.00 54 1010.1
20260504222040 25 0 0.0 0.0 0.00 0.00 0.00 53 1010.1
20260504221554 25 0 0.0 0.0 0.00 0.00 0.00 54 1010.1
20260504221044 26 0 0.0 0.0 0.00 0.00 0.00 54 1010.1
20260504220541 26 0 0.0 1.6 0.00 0.00 0.00 55 1010.2
20260504220058 25 0 0.0 1.6 0.00 0.00 0.00 55 1010.3
20260504215542 25 0 0.0 1.6 0.00 0.00 0.00 54 1010.3
20260504215041 25 0 0.0 1.6 0.00 0.00 0.00 57 1010.4
20260504214607 25 0 0.0 1.6 0.00 0.00 0.00 58 1010.2
20260504214041 24 0 0.0 0.0 0.00 0.00 0.00 58 1010.3
20260504213541 24 0 0.0 0.0 0.00 0.00 0.00 60 1010.3
20260504213059 24 0 0.0 0.0 0.00 0.00 0.00 58 1010.3
20260504212541 24 0 0.0 0.0 0.00 0.00 0.00 59 1010.4
20260504212040 24 0 0.0 0.0 0.00 0.00 0.00 59 1010.4
20260504211553 23 0 0.0 0.0 0.00 0.00 0.00 60 1010.4
20260504211043 24 0 0.0 0.0 0.00 0.00 0.00 58 1010.4
20260504210541 24 0 0.0 0.0 0.00 0.00 0.00 59 1010.5
20260504210052 24 0 0.0 0.0 0.00 0.00 0.00 60 1010.4
20260504205541 23 0 0.0 0.0 0.00 0.00 0.00 61 1010.4
20260504205041 23 0 0.0 0.0 0.00 0.00 0.00 64 1010.5
20260504204555 23 0 0.0 0.0 0.00 0.00 0.00 62 1010.2
20260504204044 23 0 0.0 0.0 0.00 0.00 0.00 62 1010.3
20260504203540 23 0 0.0 0.0 0.00 0.00 0.00 62 1010.4
20260504203056 23 0 0.0 0.0 0.00 0.00 0.00 60 1010.5
20260504202541 23 0 0.0 0.0 0.00 0.00 0.00 61 1010.5
20260504202042 23 0 0.0 0.0 0.00 0.00 0.00 60 1010.6
20260504201618 23 0 0.0 0.0 0.00 0.00 0.00 61 1010.5
20260504201044 23 0 0.0 0.0 0.00 0.00 0.00 61 1010.6
20260504200541 23 0 0.0 0.0 0.00 0.00 0.00 64 1010.6
20260504200050 23 0 0.0 1.6 0.00 0.00 0.00 62 1010.6
20260504195540 23 0 0.0 1.6 0.00 0.00 0.00 61 1010.5
20260504195041 22 0 0.0 1.6 0.00 0.00 0.00 64 1010.4
20260504194550 22 0 0.0 1.6 0.00 0.00 0.00 61 1010.4
20260504194041 22 0 0.0 1.6 0.00 0.00 0.00 66 1010.6
20260504193542 21 0 0.0 1.6 0.00 0.00 0.00 65 1010.4
20260504193049 21 0 0.0 1.6 0.00 0.00 0.00 66 1010.5
20260504192542 20 0 0.0 1.6 0.00 0.00 0.00 68 1010.4
20260504192040 20 0 0.0 1.6 0.00 0.00 0.00 70 1010.5
20260504191557 20 0 0.0 1.6 0.00 0.00 0.00 72 1010.7
20260504191041 19 0 0.0 0.0 0.00 0.00 0.00 75 1010.7
20260504190541 19 0 0.0 0.0 0.00 0.00 0.00 73 1010.8
20260504190058 18 0 0.0 0.0 0.00 0.00 0.00 74 1010.7
20260504185545 18 0 0.0 0.0 0.00 0.00 0.00 75 1010.8
20260504185041 18 0 0.0 0.0 0.00 0.00 0.00 75 1010.8
20260504184606 18 0 0.0 0.0 0.00 0.00 0.00 77 1010.7
20260504184041 17 0 0.0 0.0 0.00 0.00 0.00 77 1010.7
20260504183541 17 0 0.0 0.0 0.00 0.00 0.00 77 1010.7
20260504183049 17 0 0.0 0.0 0.00 0.00 0.00 78 1010.8
20260504182540 17 0 0.0 0.0 0.00 0.00 0.00 78 1010.8
20260504182040 17 0 0.0 0.0 0.00 0.00 0.00 78 1010.8
20260504181551 16 0 0.0 0.0 0.00 0.00 0.00 79 1010.7
20260504181041 16 0 0.0 0.0 0.00 0.00 0.00 80 1010.7
20260504180541 16 0 0.0 0.0 0.00 0.00 0.00 80 1010.9
20260504180053 16 0 0.0 0.0 0.00 0.00 0.00 81 1010.8
20260504175541 16 0 0.0 0.0 0.00 0.00 0.00 81 1010.8
20260504175041 15 0 0.0 0.0 0.00 0.00 0.00 80 1010.9
20260504174547 15 0 0.0 0.0 0.00 0.00 0.00 81 1010.9
20260504174041 15 0 0.0 0.0 0.00 0.00 0.00 80 1010.9
20260504173541 15 0 0.0 0.0 0.00 0.00 0.00 82 1011.0
20260504173049 15 0 0.0 0.0 0.00 0.00 0.00 82 1010.9
20260504172540 15 0 0.0 0.0 0.00 0.00 0.00 82 1010.9
20260504172041 15 0 0.0 0.0 0.00 0.00 0.00 82 1010.9
20260504171551 15 0 0.0 0.0 0.00 0.00 0.00 82 1010.8
20260504171041 15 0 0.0 0.0 0.00 0.00 0.00 81 1010.8
20260504170544 15 0 0.0 0.0 0.00 0.00 0.00 81 1010.8
20260504151041 12 0 0.0 0.0 0.00 0.00 0.00 88 1010.2
20260504150541 12 0 0.0 0.0 0.00 0.00 0.00 88 1010.2
20260504141044 10 0 0.0 0.0 0.00 0.00 0.00 89 1009.9
20260504140542 10 0 0.0 0.0 0.00 0.00 0.00 89 1009.9
20260504140108 10 0 0.0 0.0 0.00 0.00 0.00 89 1009.9
20260504130540 10 0 0.0 0.0 0.00 0.00 0.00 87 1009.6
20260504120105 10 0 0.0 0.0 0.00 0.00 0.00 84 1009.5
20260504110547 10 0 0.0 0.0 0.00 0.00 0.00 81 1009.7
20260504100541 11 0 0.0 0.0 0.00 0.00 0.00 80 1009.5
20260504081553 12 0 0.0 0.0 0.00 0.00 0.00 77 1009.3
20260504081040 12 0 0.0 0.0 0.00 0.00 0.00 76 1009.2
20260504080542 12 0 0.0 0.0 0.00 0.00 0.00 76 1009.1
20260504050541 16 0 0.0 0.0 0.00 0.00 0.00 67 1009.3
20260504045541 16 0 0.0 0.0 0.00 0.00 0.00 65 1009.4
20260504045041 16 0 0.0 0.0 0.00 0.00 0.00 65 1009.3
20260504044552 16 0 0.0 0.0 0.00 0.00 0.00 66 1009.3
20260504044042 16 0 0.0 0.0 0.00 0.00 0.00 65 1009.2
20260504043541 16 0 0.0 0.0 0.00 0.00 0.00 66 1009.2
20260504043050 16 0 0.0 0.0 0.00 0.00 0.00 64 1009.3
20260504042541 16 0 0.0 0.0 0.00 0.00 0.00 66 1009.2
20260504042040 16 0 0.0 0.0 0.00 0.00 0.00 64 1009.2
20260504041549 17 0 0.0 0.0 0.00 0.00 0.00 64 1009.3
20260504041040 17 0 0.0 0.0 0.00 0.00 0.00 63 1009.2
20260504040541 17 0 0.0 0.0 0.00 0.00 0.00 62 1009.2
20260504040049 17 0 0.0 0.0 0.00 0.00 0.00 62 1009.2